Vorticity
9 8 7 5 3 3 5 8 8 6 3 2 3 4 5 5 5 5 5 5 6 6 6 7 8 9 9 8 7 6 6 6 6 8 10 13 12 9 5 1 -1 -2 -1 1 3 4 5 4 3 2 2 2 2 2 2 2 2 3 4 4 5 6 6 6 7 7 7 7 7
8 8 8 6 4 3 4 7 8 7 5 2 2 3 4 4 5 5 5 5 5 6 6 7 9 10 10 9 8 7 7 7 7 8 10 12 14 13 12 8 4 2 1 2 4 6 7 8 7 6 5 3 2 1 1 1 3 4 4 5 6 6 7 7 7 7 8 8 7
8 8 8 7 5 4 4 6 7 7 6 3 2 2 3 3 4 5 5 5 5 6 7 7 9 10 11 10 8 7 7 7 8 9 10 12 15 17 18 18 15 11 8 6 7 8 9 9 8 6 4 2 1 1 1 2 3 4 5 6 7 7 7 8 8 8 8 8 8
7 7 7 6 6 5 5 5 6 6 6 4 3 2 2 3 3 4 4 5 5 6 7 7 8 9 9 9 8 7 7 8 8 9 9 10 11 14 17 20 20 18 16 13 11 10 8 7 5 4 3 2 2 2 3 4 5 6 7 7 8 8 8 8 8 9 9 9 9
6 6 6 6 6 6 6 5 6 6 5 4 3 2 2 2 3 3 3 4 5 6 7 7 7 7 8 8 7 7 7 8 9 8 8 6 7 8 10 13 15 16 15 13 9 7 5 3 3 2 3 3 4 5 6 6 7 7 8 8 8 9 9 9 9 10 10 10 10
7 7 7 6 6 7 7 7 6 6 5 4 3 3 3 3 2 2 2 3 4 5 6 7 6 6 6 6 6 7 7 7 8 7 6 5 4 4 5 6 7 8 7 6 5 4 3 3 3 3 4 5 6 7 7 7 7 8 8 8 9 9 9 10 10 10 11 11 11
7 7 7 7 7 7 8 8 8 7 6 5 4 3 3 3 3 2 2 2 3 4 5 6 6 6 5 5 6 6 6 6 7 6 6 5 4 3 3 3 3 3 3 3 3 4 4 5 5 5 6 6 7 7 7 7 7 8 8 8 8 9 9 10 10 11 11 12 12
8 8 8 8 8 8 8 8 9 9 8 7 5 3 3 3 3 3 2 2 3 4 5 5 6 6 6 6 5 5 5 5 5 5 5 5 4 4 4 3 3 2 2 1 2 3 4 5 6 6 6 6 6 6 6 7 7 7 8 8 8 9 9 10 11 11 12 12 12
8 8 8 8 8 8 8 9 9 9 9 8 6 4 3 3 3 3 3 2 3 3 4 5 5 5 6 6 5 5 5 5 4 4 4 4 4 4 5 5 4 4 3 3 3 3 4 5 5 5 5 5 6 6 6 6 7 7 7 7 7 8 9 10 11 11 12 12 12
8 8 8 8 9 9 9 9 10 10 10 9 7 6 4 4 3 3 3 3 3 3 4 4 5 5 5 5 5 5 4 4 4 4 4 4 4 4 4 5 5 4 4 4 4 4 4 4 5 5 5 5 5 5 5 6 6 6 6 7 7 8 9 10 11 11 12 12 12
8 8 8 8 9 9 9 9 10 10 10 10 9 7 6 5 4 4 4 4 4 4 4 4 4 4 4 4 4 4 4 4 4 4 4 4 4 4 4 4 3 3 3 3 3 4 4 4 4 4 5 5 5 5 5 5 6 6 6 7 7 8 9 10 11 11 11 11 11
9 9 9 9 9 9 9 10 10 10 10 10 9 8 7 6 5 5 4 4 5 4 4 4 4 4 4 4 4 4 4 4 4 4 4 4 4 3 3 3 3 2 2 3 3 3 4 4 4 4 4 4 5 5 5 5 6 6 6 7 8 8 9 10 11 11 11 11 11
9 9 9 9 9 9 10 10 10 10 10 10 9 8 7 7 6 5 5 5 5 5 5 5 5 4 4 4 4 4 4 4 4 4 4 4 3 3 3 2 2 2 2 3 3 3 3 4 4 4 4 4 5 5 5 6 6 6 6 7 8 9 9 10 11 11 11 12 12
9 9 9 9 9 10 10 10 10 10 10 10 9 8 7 7 6 6 5 5 5 5 5 5 5 5 4 4 4 4 4 4 4 4 4 3 3 2 2 2 2 2 2 3 3 3 4 4 4 4 4 4 5 5 6 6 6 6 7 7 8 8 9 10 10 11 11 12 11
9 9 9 9 10 10 10 11 11 11 10 10 9 8 7 7 6 6 5 5 5 5 5 5 5 5 5 5 5 5 5 4 4 4 3 3 2 2 2 2 2 2 3 3 3 3 4 4 4 4 4 5 5 6 6 6 6 7 7 7 8 8 9 10 10 11 11 11 11
9 9 10 10 10 10 11 11 11 11 10 10 9 8 7 7 6 6 5 5 5 5 5 5 5 5 5 5 5 5 4 4 3 3 2 2 2 2 2 2 2 3 3 3 3 3 4 4 4 4 5 5 6 6 6 6 7 7 7 8 8 9 10 10 11 11 11 10 10
10 10 10 10 10 11 11 11 11 11 10 10 9 8 7 7 6 6 5 5 5 5 5 5 4 4 4 4 4 4 3 3 3 2 2 2 2 2 2 2 3 3 3 3 3 4 4 4 5 5 6 6 7 7 7 7 7 8 8 8 9 10 10 11 11 11 11 10 10
10 10 11 11 11 11 11 11 11 10 10 9 9 8 7 7 6 6 5 5 5 4 4 4 4 4 3 3 3 3 2 2 2 2 2 2 2 2 2 3 3 3 3 4 4 4 4 5 5 6 7 8 8 8 8 8 8 8 9 9 10 10 11 11 11 11 10 10 10
11 11 11 11 11 11 11 10 10 10 9 9 8 8 7 7 6 6 6 5 5 4 4 4 3 3 3 3 2 2 2 2 2 2 2 2 2 2 3 3 3 3 4 4 4 5 5 6 7 8 9 9 9 9 9 9 9 9 9 10 10 10 11 11 11 11 11 10 11
10 11 11 10 10 10 10 10 9 9 9 8 8 8 7 7 6 6 6 5 5 4 4 4 3 3 2 2 2 2 2 2 2 2 2 2 3 3 3 3 4 4 5 5 6 6 7 8 9 10 10 10 10 10 10 10 10 10 10 10 11 11 11 11 11 11 11 11 11
10 10 10 10 10 10 9 9 9 8 8 8 7 7 7 7 6 6 6 6 5 5 4 4 3 3 2 2 2 2 2 2 2 3 3 3 3 3 4 4 5 6 6 7 8 8 9 10 11 11 11 11 10 10 10 10 10 11 11 12 12 12 12 12 12 12 12 11 11
10 10 10 10 9 9 9 9 8 8 8 7 7 7 7 6 6 6 6 6 5 5 4 4 3 3 3 3 2 3 3 3 3 3 3 4 4 4 5 6 7 7 8 9 9 10 11 12 12 12 11 11 11 10 10 10 11 11 12 12 12 12 12 12 11 11 11 11 12
10 10 10 9 9 9 9 8 8 8 8 7 7 7 7 6 6 5 5 5 5 5 5 4 4 4 4 4 3 3 4 4 4 4 5 5 5 6 7 8 9 9 9 9 10 11 12 12 12 12 12 11 10 10 11 11 12 12 11 11 11 11 12 12 11 10 10 11 12
9 9 9 9 9 8 8 8 8 8 8 8 7 7 7 6 6 5 5 5 5 5 5 5 5 5 5 5 5 5 5 5 5 5 6 6 7 8 9 9 10 10 10 10 11 12 12 12 11 11 11 11 10 11 11 12 11 11 11 12 12 12 12 11 11 10 9 8 7
8 8 8 9 8 8 7 7 7 8 8 8 8 8 7 7 6 6 5 5 5 5 6 5 5 6 6 6 6 6 6 6 7 7 7 8 8 9 9 10 10 10 10 10 11 12 12 12 11 10 10 10 10 11 11 11 11 11 12 13 12 12 11 11 11 10 8 4 1
7 8 7 7 7 6 6 6 7 8 9 9 9 8 8 8 7 7 6 6 6 6 6 6 6 6 7 7 7 7 7 8 8 8 8 9 9 9 9 10 10 10 10 11 11 12 12 12 12 11 10 10 10 11 11 10 10 11 12 11 9 8 9 10 11 10 8 3 -2
6 7 6 5 5 5 5 6 7 8 9 9 9 9 8 8 8 8 7 7 7 7 7 7 7 7 7 7 7 7 8 8 8 9 9 9 9 9 9 10 10 10 10 11 12 12 12 12 11 11 11 11 11 10 9 8 10 10 8 5 3 3 5 7 10 10 10 7 2
6 6 6 5 4 5 6 7 8 9 9 10 10 10 9 9 9 9 9 9 9 9 8 8 8 8 7 7 8 7 7 8 8 8 8 8 9 9 9 10 10 10 11 11 12 12 12 11 11 11 11 11 10 9 8 9 8 5 2 -1 -1 1 3 6 8 10 11 11 8
5 6 6 5 4 5 6 7 8 9 9 10 10 10 10 10 10 10 10 10 10 10 9 9 8 8 8 7 7 7 7 7 7 7 7 8 9 9 10 10 10 10 11 12 12 12 12 11 11 11 11 11 9 9 9 9 4 0 -2 -2 -0 2 4 5 7 9 11 12 10
7 6 6 6 5 5 6 7 8 9 9 10 11 11 11 11 11 11 11 11 11 10 10 9 8 8 7 7 7 7 7 7 7 7 7 8 8 9 9 9 10 10 11 12 12 12 12 12 12 12 12 11 10 10 8 4 -0 -0 1 3 4 5 5 5 6 9 10 11 7
12 9 8 7 6 6 6 7 8 9 9 10 10 11 11 11 11 12 12 12 11 10 9 9 8 7 7 7 7 7 7 6 7 7 7 8 8 8 9 9 9 10 11 11 12 12 13 13 13 13 13 12 11 8 4 -2 -1 2 5 7 6 5 4 4 7 9 10 10 6
18 14 11 9 7 6 6 6 7 7 8 9 9 9 9 10 11 11 11 11 10 9 8 8 8 7 7 7 7 7 7 7 7 7 8 8 8 8 8 9 9 10 10 11 12 12 13 14 14 13 12 12 10 5 -1 -3 1 5 7 6 4 3 3 4 6 9 10 9 6
23 19 15 13 10 8 6 6 6 6 7 7 7 7 7 8 9 10 10 10 9 8 7 7 7 7 7 8 8 8 8 8 8 8 8 9 8 8 9 9 10 10 10 11 11 12 13 13 12 12 11 10 7 2 -0 2 6 7 6 4 2 2 3 4 6 8 9 8 6
25 23 20 17 13 10 8 6 5 5 6 6 7 6 6 7 8 8 8 8 8 7 7 7 7 8 8 8 8 8 8 8 9 9 9 9 9 9 9 9 10 10 10 10 11 11 12 12 11 10 9 8 5 3 3 6 7 6 4 2 2 2 3 4 6 7 8 8 6
25 24 23 20 16 13 10 7 6 5 5 6 7 7 7 7 8 8 8 7 7 7 7 7 8 8 9 9 9 9 9 9 9 9 9 9 9 9 9 10 10 10 10 10 10 10 10 10 9 8 7 6 5 5 6 7 6 5 3 2 1 2 3 4 5 7 7 7 7
21 22 22 20 17 14 11 8 6 5 5 5 6 7 7 7 7 8 8 8 7 7 7 8 8 9 9 9 9 10 10 10 10 9 9 9 9 9 9 9 9 9 9 9 9 9 9 8 7 7 6 5 5 6 6 5 4 3 2 1 1 2 3 4 6 6 7 7 8
14 16 18 19 17 15 12 9 7 5 4 4 4 5 6 7 7 8 8 8 8 8 8 8 8 8 8 9 9 9 10 10 9 9 8 8 9 9 9 9 9 9 8 9 9 8 8 8 7 7 6 6 6 5 4 3 2 1 1 1 1 2 4 5 6 6 7 7 8
6 10 14 17 18 16 14 10 6 4 2 1 1 2 3 5 6 7 8 8 8 8 8 8 8 8 7 8 8 8 8 8 8 8 7 8 8 8 8 8 8 7 7 7 7 7 7 7 7 7 6 6 5 3 2 1 1 1 1 1 1 3 4 5 6 6 6 7 7
2 5 9 15 17 16 13 8 4 1 -1 -2 -2 -1 0 2 4 5 7 7 7 8 7 7 7 6 6 6 6 6 7 7 7 6 6 6 7 7 7 7 6 6 6 6 6 6 6 6 6 5 4 3 2 1 1 1 1 1 1 1 3 4 5 6 6 6 7 8 8
2 3 6 12 16 15 13 8 6 4 3 2 1 1 0 0 0 1 3 4 6 6 7 6 6 6 5 5 5 5 5 5 5 5 5 5 5 6 6 5 5 5 5 5 5 5 5 4 3 3 2 1 1 1 1 1 1 1 2 3 5 6 7 7 7 8 8 10 11
4 3 5 9 14 15 15 12 11 11 11 11 10 9 6 3 0 -1 -2 -1 1 3 4 4 5 4 4 4 4 4 4 5 5 5 4 4 4 4 4 4 4 4 4 3 3 3 3 2 2 1 1 1 1 1 1 2 2 3 5 6 8 9 9 9 9 10 11 14 14
Height
5698 5700 5703 5705 5708 5711 5713 5715 5717 5719 5721 5723 5725 5727 5728 5730 5732 5733 5735 5736 5737 5739 5740 5742 5743 5744 5745 5746 5747 5748 5749 5750 5752 5752 5753 5754 5755 5756 5756 5757 5758 5758 5759 5760 5761 5761 5762 5762 5763 5763 5764 5764 5764 5764 5764 5764 5764 5763 5763 5763 5763 5762 5762 5762 5761 5761 5760 5759 5758
5696 5699 5701 5704 5706 5709 5711 5713 5715 5717 5719 5721 5723 5725 5727 5728 5730 5732 5733 5734 5736 5737 5739 5740 5741 5742 5743 5744 5745 5746 5747 5748 5750 5751 5751 5752 5753 5754 5754 5755 5756 5757 5757 5758 5759 5760 5760 5761 5761 5762 5762 5762 5762 5762 5762 5762 5762 5761 5761 5761 5760 5760 5759 5759 5758 5758 5757 5757 5756
5695 5697 5700 5702 5705 5707 5710 5712 5714 5716 5718 5720 5721 5723 5725 5727 5728 5730 5731 5733 5734 5736 5737 5738 5740 5740 5741 5742 5743 5744 5746 5747 5748 5749 5750 5750 5751 5752 5752 5753 5754 5755 5755 5756 5757 5758 5758 5759 5759 5760 5760 5760 5760 5760 5760 5759 5759 5759 5759 5759 5758 5757 5757 5757 5756 5756 5755 5754 5753
5693 5696 5698 5701 5703 5706 5708 5710 5712 5714 5716 5718 5720 5722 5723 5725 5726 5728 5730 5731 5733 5734 5736 5737 5738 5739 5740 5741 5742 5743 5744 5745 5746 5747 5748 5749 5749 5750 5750 5751 5752 5753 5754 5755 5755 5756 5757 5757 5757 5758 5758 5758 5758 5758 5758 5757 5757 5757 5757 5756 5756 5755 5755 5754 5754 5753 5752 5752 5751
5692 5694 5697 5699 5702 5704 5706 5708 5711 5712 5714 5716 5718 5720 5721 5723 5725 5726 5728 5730 5732 5733 5734 5735 5736 5737 5738 5739 5740 5741 5742 5743 5745 5746 5746 5747 5747 5748 5748 5749 5750 5751 5752 5753 5753 5754 5755 5755 5756 5756 5756 5756 5756 5756 5756 5756 5755 5755 5754 5754 5753 5753 5752 5752 5752 5751 5750 5750 5749
5690 5692 5695 5697 5700 5702 5704 5707 5709 5711 5712 5714 5717 5718 5720 5721 5723 5725 5727 5728 5730 5731 5732 5733 5735 5736 5737 5738 5739 5740 5741 5742 5743 5744 5744 5745 5746 5746 5747 5747 5748 5749 5750 5751 5752 5752 5752 5753 5753 5754 5754 5754 5754 5754 5753 5753 5753 5753 5752 5752 5751 5750 5750 5749 5749 5749 5748 5747 5747
5688 5691 5693 5696 5698 5701 5703 5705 5707 5709 5711 5713 5715 5717 5718 5720 5721 5723 5725 5727 5728 5730 5731 5732 5733 5734 5735 5736 5737 5738 5739 5740 5741 5742 5742 5743 5744 5744 5745 5746 5747 5747 5748 5749 5750 5750 5750 5751 5751 5752 5752 5752 5752 5752 5751 5751 5751 5750 5750 5749 5748 5748 5747 5747 5747 5747 5746 5745 5745
5687 5689 5692 5694 5696 5699 5701 5703 5705 5707 5709 5711 5713 5715 5716 5718 5720 5722 5723 5725 5727 5728 5729 5730 5731 5732 5734 5735 5736 5737 5738 5739 5739 5740 5741 5742 5742 5743 5743 5744 5745 5746 5746 5747 5747 5748 5748 5749 5749 5750 5750 5750 5749 5749 5749 5748 5748 5747 5747 5747 5746 5746 5745 5745 5744 5744 5744 5743 5742
5685 5687 5690 5692 5695 5697 5699 5701 5703 5705 5707 5709 5711 5713 5714 5716 5718 5720 5722 5724 5725 5726 5727 5729 5730 5731 5732 5733 5734 5736 5736 5737 5738 5738 5739 5740 5740 5741 5742 5742 5743 5744 5744 5745 5745 5746 5746 5747 5747 5747 5747 5747 5747 5747 5746 5746 5745 5745 5745 5744 5744 5743 5743 5742 5742 5742 5741 5741 5740
5683 5685 5688 5690 5692 5695 5697 5699 5701 5703 5705 5707 5709 5711 5712 5714 5716 5718 5720 5722 5723 5724 5726 5727 5728 5729 5731 5732 5733 5734 5735 5735 5736 5737 5737 5738 5738 5739 5740 5740 5741 5742 5742 5743 5743 5744 5744 5744 5745 5745 5745 5744 5744 5744 5743 5743 5743 5742 5742 5742 5741 5741 5740 5740 5739 5739 5738 5738 5737
5681 5683 5686 5688 5691 5693 5695 5697 5699 5701 5703 5705 5707 5709 5711 5712 5714 5716 5718 5720 5722 5723 5724 5725 5727 5728 5729 5730 5731 5732 5733 5733 5734 5735 5735 5736 5737 5737 5738 5738 5739 5739 5740 5740 5741 5741 5742 5742 5742 5742 5742 5742 5742 5741 5741 5741 5740 5740 5740 5739 5739 5738 5738 5737 5737 5736 5736 5735 5734
5679 5681 5684 5686 5688 5691 5693 5695 5697 5699 5702 5703 5705 5707 5709 5711 5712 5714 5716 5718 5720 5721 5722 5723 5725 5726 5727 5728 5729 5730 5731 5732 5732 5733 5733 5734 5735 5735 5736 5736 5737 5737 5737 5738 5738 5738 5739 5739 5739 5739 5739 5739 5739 5739 5738 5738 5738 5737 5737 5737 5736 5736 5735 5735 5734 5734 5733 5732 5732
5677 5679 5682 5684 5687 5689 5691 5693 5696 5698 5700 5702 5704 5705 5707 5709 5711 5712 5714 5716 5718 5719 5720 5722 5723 5724 5725 5726 5727 5728 5729 5730 5730 5731 5732 5732 5733 5733 5733 5734 5734 5735 5735 5736 5736 5736 5736 5737 5737 5737 5737 5737 5737 5736 5736 5736 5735 5735 5734 5734 5734 5733 5733 5732 5732 5731 5731 5730 5730
5675 5677 5680 5682 5685 5687 5689 5692 5694 5696 5698 5700 5702 5704 5705 5707 5708 5710 5712 5714 5716 5717 5718 5720 5721 5722 5723 5724 5725 5726 5727 5728 5728 5729 5730 5730 5731 5731 5732 5732 5732 5732 5733 5733 5733 5734 5734 5734 5734 5734 5734 5734 5734 5734 5733 5733 5732 5732 5732 5732 5731 5731 5731 5730 5730 5729 5729 5728 5728
5673 5676 5678 5681 5683 5686 5688 5690 5692 5694 5696 5698 5700 5702 5703 5705 5707 5708 5710 5712 5713 5715 5716 5717 5719 5720 5721 5722 5723 5724 5725 5726 5727 5727 5728 5728 5729 5729 5729 5730 5730 5730 5731 5731 5731 5731 5732 5732 5732 5732 5732 5732 5731 5731 5730 5730 5730 5729 5729 5729 5729 5729 5728 5728 5728 5727 5727 5726 5726
5672 5675 5677 5679 5682 5684 5686 5689 5691 5692 5695 5696 5698 5700 5701 5703 5704 5706 5708 5710 5711 5713 5714 5715 5717 5718 5719 5720 5721 5722 5723 5724 5724 5725 5726 5726 5727 5727 5727 5727 5728 5728 5728 5729 5729 5729 5729 5729 5729 5729 5729 5729 5729 5728 5728 5727 5727 5727 5727 5727 5727 5727 5726 5726 5726 5725 5725 5724 5723
5671 5673 5676 5678 5680 5682 5685 5687 5689 5691 5693 5694 5696 5698 5699 5701 5702 5704 5706 5707 5709 5710 5712 5713 5714 5716 5717 5718 5719 5720 5721 5722 5722 5723 5724 5724 5724 5725 5725 5725 5726 5726 5726 5727 5727 5727 5727 5727 5727 5727 5727 5726 5726 5726 5725 5725 5725 5725 5725 5725 5725 5725 5724 5724 5724 5723 5722 5722 5721
5670 5672 5674 5677 5679 5681 5683 5686 5687 5689 5691 5692 5694 5696 5697 5699 5700 5702 5703 5705 5707 5708 5709 5711 5712 5713 5715 5716 5717 5717 5718 5719 5720 5721 5722 5722 5722 5723 5723 5723 5723 5724 5724 5724 5724 5724 5724 5724 5724 5724 5724 5724 5724 5723 5723 5723 5723 5723 5723 5723 5723 5722 5722 5722 5722 5721 5720 5720 5719
5668 5670 5673 5675 5677 5680 5682 5684 5686 5687 5689 5691 5692 5694 5695 5697 5698 5699 5701 5702 5704 5706 5707 5708 5710 5711 5712 5713 5715 5715 5716 5717 5718 5719 5719 5720 5720 5721 5721 5721 5722 5722 5722 5722 5722 5722 5722 5722 5722 5722 5722 5722 5722 5722 5721 5721 5721 5721 5721 5721 5721 5721 5721 5720 5720 5719 5718 5717 5717
5666 5669 5671 5673 5676 5678 5680 5682 5684 5685 5687 5688 5690 5692 5693 5695 5696 5697 5699 5700 5702 5703 5704 5706 5708 5709 5711 5712 5712 5713 5714 5715 5716 5717 5717 5718 5718 5719 5719 5719 5719 5720 5720 5720 5720 5720 5720 5720 5720 5720 5720 5720 5719 5719 5719 5719 5719 5719 5719 5719 5719 5719 5719 5718 5718 5717 5716 5716 5715
5665 5667 5669 5672 5674 5676 5678 5680 5682 5683 5685 5687 5688 5690 5692 5693 5694 5695 5697 5698 5699 5701 5702 5704 5706 5707 5708 5709 5711 5711 5712 5713 5714 5715 5715 5716 5717 5717 5717 5717 5717 5717 5717 5717 5717 5717 5717 5717 5718 5718 5717 5717 5717 5717 5717 5717 5717 5717 5717 5717 5717 5717 5717 5716 5716 5715 5714 5713 5713
5663 5666 5668 5670 5672 5674 5676 5678 5680 5681 5683 5685 5686 5688 5689 5691 5692 5693 5694 5696 5697 5698 5700 5702 5703 5705 5706 5707 5708 5709 5710 5711 5712 5713 5713 5714 5715 5715 5715 5716 5715 5715 5715 5715 5715 5715 5716 5716 5716 5716 5716 5715 5715 5715 5715 5715 5715 5716 5716 5715 5715 5715 5715 5714 5714 5713 5712 5712 5711
5662 5664 5666 5668 5670 5672 5674 5676 5678 5679 5681 5683 5684 5686 5687 5689 5690 5692 5692 5694 5695 5696 5697 5699 5701 5702 5704 5705 5706 5707 5708 5709 5710 5711 5712 5712 5713 5713 5713 5713 5713 5713 5713 5713 5713 5713 5714 5714 5714 5714 5713 5713 5713 5713 5713 5713 5713 5714 5713 5713 5713 5713 5712 5712 5712 5711 5711 5710 5710
5660 5662 5664 5667 5668 5671 5672 5674 5676 5677 5679 5681 5682 5684 5686 5687 5688 5690 5691 5692 5693 5694 5695 5697 5698 5700 5701 5702 5704 5705 5707 5707 5708 5709 5710 5711 5711 5712 5712 5712 5712 5711 5711 5711 5711 5712 5712 5712 5712 5712 5712 5711 5711 5711 5712 5712 5712 5712 5712 5711 5711 5711 5711 5710 5710 5709 5709 5708 5708
5659 5661 5663 5665 5667 5669 5671 5672 5674 5676 5677 5679 5680 5682 5683 5685 5687 5688 5689 5690 5691 5692 5693 5694 5696 5697 5698 5700 5702 5703 5704 5706 5707 5707 5708 5709 5709 5709 5709 5709 5709 5709 5709 5709 5710 5710 5710 5710 5710 5710 5710 5709 5709 5710 5710 5710 5710 5710 5710 5710 5709 5709 5708 5708 5708 5708 5707 5707 5706
5657 5659 5661 5663 5666 5667 5669 5670 5672 5674 5675 5677 5678 5680 5682 5683 5684 5686 5687 5688 5689 5690 5691 5692 5693 5694 5696 5697 5699 5701 5702 5703 5705 5706 5706 5707 5707 5707 5707 5707 5707 5707 5707 5707 5708 5708 5708 5708 5708 5708 5708 5708 5708 5708 5708 5709 5708 5709 5709 5708 5708 5707 5707 5706 5706 5706 5706 5705 5704
5655 5657 5659 5661 5663 5665 5667 5668 5670 5672 5673 5674 5676 5677 5679 5681 5682 5684 5685 5686 5687 5688 5689 5690 5691 5692 5693 5695 5697 5698 5700 5701 5702 5703 5704 5704 5705 5705 5705 5705 5705 5705 5706 5706 5706 5706 5706 5706 5706 5706 5706 5706 5706 5707 5707 5707 5707 5708 5708 5707 5706 5706 5705 5705 5704 5704 5704 5703 5702
5653 5655 5657 5659 5660 5662 5664 5666 5667 5669 5671 5672 5674 5675 5677 5679 5680 5682 5683 5684 5685 5686 5687 5687 5688 5690 5691 5692 5694 5696 5697 5699 5700 5701 5701 5702 5702 5702 5703 5703 5703 5703 5703 5704 5704 5704 5705 5704 5704 5704 5704 5704 5705 5705 5705 5705 5706 5707 5707 5706 5704 5704 5703 5703 5703 5702 5702 5702 5701
5652 5653 5655 5657 5658 5660 5662 5664 5665 5667 5668 5670 5672 5673 5675 5676 5678 5679 5681 5682 5683 5684 5685 5685 5686 5687 5689 5690 5692 5693 5695 5696 5697 5698 5699 5699 5700 5700 5700 5701 5701 5701 5702 5702 5702 5703 5703 5703 5703 5703 5703 5703 5703 5703 5703 5704 5704 5705 5704 5703 5702 5702 5702 5701 5701 5701 5700 5700 5699
5649 5651 5653 5654 5656 5658 5659 5661 5663 5665 5666 5668 5669 5671 5672 5674 5676 5677 5678 5680 5681 5682 5682 5683 5684 5685 5687 5688 5690 5691 5692 5693 5694 5695 5696 5697 5697 5698 5698 5698 5699 5699 5700 5700 5701 5701 5701 5701 5701 5701 5701 5701 5701 5701 5702 5702 5703 5703 5702 5701 5701 5700 5700 5700 5699 5699 5698 5698 5697
5647 5649 5651 5652 5654 5656 5657 5659 5661 5662 5664 5665 5667 5669 5670 5672 5673 5675 5677 5677 5678 5679 5680 5681 5682 5683 5685 5686 5688 5689 5690 5691 5692 5693 5694 5694 5695 5696 5696 5697 5697 5697 5698 5699 5699 5699 5699 5700 5699 5699 5699 5699 5699 5699 5700 5700 5701 5701 5700 5699 5699 5699 5698 5698 5697 5697 5697 5696 5695
5644 5646 5648 5650 5652 5653 5655 5657 5659 5660 5662 5663 5665 5667 5668 5670 5672 5673 5674 5675 5676 5677 5678 5679 5680 5682 5683 5685 5686 5687 5687 5688 5690 5690 5691 5692 5693 5693 5694 5694 5695 5696 5696 5697 5697 5697 5697 5697 5697 5697 5697 5697 5697 5697 5697 5699 5699 5698 5698 5697 5697 5697 5697 5696 5696 5695 5695 5694 5692
5641 5643 5645 5647 5649 5651 5653 5655 5657 5658 5660 5662 5663 5664 5666 5667 5669 5671 5672 5673 5674 5675 5676 5677 5679 5680 5682 5683 5684 5685 5685 5686 5687 5688 5689 5690 5690 5691 5692 5692 5693 5694 5694 5694 5695 5695 5695 5695 5695 5695 5695 5695 5695 5695 5696 5697 5697 5696 5696 5696 5695 5695 5695 5694 5694 5693 5693 5692 5691
5639 5641 5642 5644 5646 5648 5650 5652 5654 5655 5657 5659 5661 5662 5663 5665 5667 5669 5670 5671 5672 5673 5674 5675 5677 5678 5680 5681 5682 5682 5683 5684 5685 5686 5687 5687 5688 5689 5690 5691 5691 5692 5692 5692 5692 5693 5693 5693 5693 5693 5693 5693 5693 5693 5694 5694 5694 5694 5694 5694 5693 5693 5693 5692 5692 5691 5691 5690 5689
5637 5638 5640 5642 5644 5646 5648 5650 5652 5653 5655 5656 5658 5660 5661 5663 5665 5666 5668 5669 5670 5671 5672 5673 5675 5676 5677 5678 5679 5680 5681 5682 5683 5684 5685 5686 5686 5687 5688 5689 5689 5690 5690 5690 5690 5691 5691 5691 5691 5691 5691 5691 5692 5692 5692 5692 5692 5692 5692 5692 5692 5691 5691 5690 5689 5689 5688 5687 5687
5635 5637 5638 5640 5642 5644 5646 5647 5649 5651 5652 5654 5656 5657 5659 5661 5662 5664 5665 5667 5668 5669 5670 5672 5673 5674 5675 5677 5677 5678 5679 5680 5681 5682 5683 5683 5684 5685 5686 5687 5687 5687 5688 5688 5688 5688 5689 5689 5689 5689 5689 5689 5690 5690 5690 5690 5690 5690 5690 5690 5690 5689 5689 5688 5687 5687 5686 5685 5684
5633 5635 5637 5638 5640 5642 5644 5646 5647 5649 5651 5652 5654 5656 5657 5659 5660 5662 5663 5664 5666 5667 5668 5670 5671 5672 5673 5674 5676 5677 5677 5678 5679 5680 5681 5682 5682 5683 5684 5685 5685 5685 5686 5686 5686 5687 5687 5687 5687 5687 5687 5688 5688 5688 5688 5688 5688 5688 5688 5688 5688 5687 5687 5686 5685 5685 5684 5683 5682
5632 5633 5635 5636 5638 5640 5642 5644 5646 5647 5649 5651 5652 5654 5655 5657 5658 5659 5661 5662 5663 5665 5666 5667 5668 5670 5671 5672 5673 5674 5675 5676 5677 5678 5679 5680 5680 5681 5682 5682 5683 5683 5683 5684 5684 5684 5685 5685 5685 5686 5686 5686 5686 5686 5686 5686 5686 5687 5687 5687 5686 5685 5685 5684 5683 5682 5682 5681 5680
5629 5631 5633 5634 5636 5637 5639 5642 5644 5645 5647 5649 5650 5652 5653 5655 5656 5657 5659 5660 5662 5662 5664 5665 5666 5667 5669 5670 5671 5672 5673 5674 5675 5676 5677 5677 5678 5679 5680 5680 5681 5681 5682 5682 5682 5682 5683 5683 5683 5683 5684 5684 5684 5684 5684 5684 5685 5685 5685 5685 5684 5683 5683 5682 5681 5680 5679 5679 5678
5627 5629 5631 5632 5634 5636 5637 5640 5642 5643 5645 5647 5648 5650 5651 5652 5654 5655 5657 5658 5659 5661 5662 5663 5664 5665 5667 5667 5669 5670 5671 5672 5673 5674 5675 5676 5676 5677 5677 5678 5678 5679 5679 5680 5680 5681 5681 5681 5682 5682 5682 5682 5682 5682 5682 5682 5683 5683 5683 5682 5682 5681 5680 5680 5679 5678 5677 5677 5676
5625 5627 5629 5630 5632 5634 5636 5638 5640 5641 5643 5644 5646 5647 5649 5650 5652 5653 5654 5656 5657 5658 5660 5661 5662 5663 5664 5665 5667 5668 5669 5670 5671 5672 5673 5673 5674 5675 5675 5676 5676 5677 5677 5678 5678 5679 5679 5679 5679 5679 5679 5679 5679 5680 5680 5681 5681 5681 5680 5680 5679 5679 5678 5677 5677 5676 5675 5674 5673